TimeAKDT,TemperatureF,Dew PointF,Humidity,Sea Level PressureIn,VisibilityMPH,Wind Direction,Wind SpeedMPH,Gust SpeedMPH,PrecipitationIn,Events,Conditions,WindDirDegrees,DateUTC
12:36 AM,62.6,57.2,82,29.82,7.0,Calm,Calm,-,0.16,,Overcast,0,2013-09-08 08:36:00
12:56 AM,62.6,55.4,77,29.84,10.0,SSW,6.9,17.3,0.24,,Overcast,210,2013-09-08 08:56:00
1:16 AM,62.6,57.2,82,29.84,4.0,Calm,Calm,-,0.09,,Overcast,0,2013-09-08 09:16:00
1:56 AM,60.8,57.2,88,29.83,7.0,Calm,Calm,-,0.27,,Overcast,0,2013-09-08 09:56:00
2:36 AM,60.8,57.2,88,29.84,5.0,North,4.6,-,0.06,,Overcast,350,2013-09-08 10:36:00
2:56 AM,60.8,57.2,88,29.85,4.0,North,4.6,-,0.08,,Mostly Cloudy,350,2013-09-08 10:56:00
3:16 AM,62.6,57.2,82,29.85,7.0,SE,5.8,-,N/A,,Mostly Cloudy,140,2013-09-08 11:16:00
3:56 AM,62.6,55.4,77,29.87,8.0,South,10.4,19.6,0.02,,Overcast,190,2013-09-08 11:56:00
4:16 AM,60.8,55.4,82,29.89,10.0,SW,8.1,-,0.01,,Overcast,230,2013-09-08 12:16:00
4:36 AM,60.8,53.6,77,29.90,10.0,SSW,9.2,-,0.01,,Overcast,210,2013-09-08 12:36:00
5:56 AM,57.2,51.8,82,29.95,10.0,Calm,Calm,-,N/A,,Mostly Cloudy,0,2013-09-08 13:56:00
6:16 AM,57.2,51.8,82,29.95,10.0,South,4.6,-,N/A,,Mostly Cloudy,190,2013-09-08 14:16:00
6:55 AM,57.2,51.8,82,29.99,10.0,South,4.6,-,N/A,Rain,Light Rain,190,2013-09-08 14:55:00
7:16 AM,57.2,51.8,82,29.99,10.0,South,6.9,-,N/A,,Mostly Cloudy,190,2013-09-08 15:16:00
7:56 AM,57.2,51.8,82,30.00,10.0,SW,3.5,-,N/A,,Mostly Cloudy,230,2013-09-08 15:56:00
8:56 AM,57.2,50.0,77,30.04,10.0,SSW,3.5,-,N/A,,Overcast,200,2013-09-08 16:56:00
9:16 AM,59.0,50.0,72,30.05,10.0,SW,4.6,-,N/A,,Overcast,220,2013-09-08 17:16:00
9:36 AM,59.0,50.0,72,30.06,10.0,WSW,9.2,-,N/A,,Overcast,240,2013-09-08 17:36:00
9:56 AM,60.8,50.0,68,30.07,10.0,South,5.8,-,N/A,Rain,Light Rain Showers,170,2013-09-08 17:56:00
10:16 AM,60.8,48.2,63,30.07,10.0,South,10.4,-,N/A,,Mostly Cloudy,190,2013-09-08 18:16:00
10:56 AM,-9999,-9999,N/A,30.08,10.0,WSW,4.6,-,N/A,,Mostly Cloudy,250,2013-09-08 18:56:00
11:16 AM,60.8,48.2,63,30.09,10.0,SSW,5.8,-,N/A,,Mostly Cloudy,210,2013-09-08 19:16:00
11:36 AM,59.0,48.2,67,30.10,10.0,WSW,5.8,-,N/A,,Mostly Cloudy,240,2013-09-08 19:36:00
11:56 AM,60.8,50.0,68,30.11,10.0,South,3.5,-,N/A,,Overcast,190,2013-09-08 19:56:00
1:15 PM,62.6,48.2,59,30.10,10.0,South,5.8,-,N/A,,Mostly Cloudy,170,2013-09-08 21:15:00
1:16 PM,-9999,-9999,N/A,-9999,-9999.0,North,-9999.0,-,N/A,,Unknown,0,2013-09-08 21:16:00
1:56 PM,62.6,48.2,59,30.11,10.0,SW,8.1,-,N/A,,Mostly Cloudy,220,2013-09-08 21:56:00
2:16 PM,64.4,46.4,52,30.11,10.0,SSW,6.9,-,N/A,,Mostly Cloudy,210,2013-09-08 22:16:00
2:36 PM,64.4,48.2,56,30.11,10.0,SSW,5.8,-,N/A,,Mostly Cloudy,210,2013-09-08 22:36:00
2:56 PM,62.6,46.4,55,30.11,10.0,SSW,4.6,-,N/A,,Mostly Cloudy,200,2013-09-08 22:56:00
3:16 PM,62.6,48.2,59,30.11,10.0,South,5.8,-,N/A,,Mostly Cloudy,180,2013-09-08 23:16:00
3:54 PM,62.6,46.4,55,30.12,10.0,South,9.2,-,N/A,,Mostly Cloudy,170,2013-09-08 23:54:00
4:36 PM,62.6,48.2,59,30.12,10.0,SW,5.8,-,N/A,,Mostly Cloudy,220,2013-09-09 00:36:00
4:56 PM,62.6,48.2,59,30.12,10.0,South,5.8,-,N/A,,Mostly Cloudy,190,2013-09-09 00:56:00
5:56 PM,60.8,48.2,63,30.12,10.0,South,5.8,-,N/A,,Mostly Cloudy,170,2013-09-09 01:56:00
6:16 PM,60.8,48.2,63,30.12,10.0,SSW,3.5,-,N/A,,Mostly Cloudy,200,2013-09-09 02:16:00
6:36 PM,59.0,48.2,67,30.12,10.0,NNW,3.5,-,N/A,,Mostly Cloudy,330,2013-09-09 02:36:00
6:56 PM,57.2,48.2,72,30.12,10.0,ENE,3.5,-,N/A,,Mostly Cloudy,60,2013-09-09 02:56:00
7:16 PM,57.2,48.2,72,30.13,10.0,Calm,Calm,-,N/A,,Mostly Cloudy,0,2013-09-09 03:16:00
7:36 PM,55.4,50.0,82,30.13,10.0,Calm,Calm,-,N/A,,Mostly Cloudy,0,2013-09-09 03:36:00
7:56 PM,53.6,48.2,82,30.13,10.0,Calm,Calm,-,N/A,,Mostly Cloudy,0,2013-09-09 03:56:00
8:16 PM,53.6,48.2,82,30.14,10.0,Calm,Calm,-,N/A,,Mostly Cloudy,0,2013-09-09 04:16:00
8:36 PM,53.6,48.2,82,30.14,10.0,Calm,Calm,-,N/A,,Mostly Cloudy,0,2013-09-09 04:36:00
9:16 PM,51.8,48.2,88,30.15,10.0,Calm,Calm,-,N/A,,Mostly Cloudy,0,2013-09-09 05:16:00
9:56 PM,51.8,46.4,82,30.16,10.0,Calm,Calm,-,N/A,,Scattered Clouds,0,2013-09-09 05:56:00
10:16 PM,50.0,46.4,87,30.16,10.0,Calm,Calm,-,N/A,,Partly Cloudy,0,2013-09-09 06:16:00
10:56 PM,48.2,46.4,93,30.16,10.0,SW,4.6,-,N/A,,Scattered Clouds,230,2013-09-09 06:56:00
11:16 PM,50.0,46.4,87,30.16,10.0,Calm,Calm,-,N/A,,Scattered Clouds,0,2013-09-09 07:16:00
11:36 PM,48.2,46.4,93,30.16,10.0,SSW,4.6,-,N/A,,Clear,200,2013-09-09 07:36:00
11:56 PM,48.2,46.4,93,30.16,10.0,South,4.6,-,N/A,,Clear,180,2013-09-09 07:56:00